Location: Unspecified
(40.9447°N, 78.9903°W)
Time: 10:05:30
(UTC-04:00)

CZ-3 Stage 3 - Pass Details

Date: 27 July 2021
Orbit: 451 x 34732 km, 30.4° (Epoch: 19 September)

Event Time Altitude Azimuth Distance (km) Brightness Sun altitude
Exits shadow 04:22:17 16° 168° (SSE) 1,530 3.8 -16.9°
Drops below altitude 10° 04:24:48 10° 135° (SE) 2,422 5.1 -16.6°
Sets 04:30:00 0° 115° (ESE) 4,899 6.9 -15.9°
